Regional Weather Roundup
Issued by NWS

Home | Current Version | Previous Version | Text Only | Print | Product List | Glossary On
Versions: 1 2 3 4 5 6 7 8 9 10 11 12 13 14 15 16 17 18 19 20 21 22 23 24 25 26 27 28 29 30 31 32 33 34 35 36 37 38 39 40 41 42 43 44 45 46 47 48 49 50
000
ASUS45 KREV 250210
RWRNV
NEVADA REGIONAL WEATHER ROUNDUP
NATIONAL WEATHER SERVICE RENO NV
700 PM PDT SUN JUL 24 2016

NOTE: "FAIR" INDICATES FEW OR NO CLOUDS BELOW 12,000 FEET WITH NO
SIGNIFICANT WEATHER AND/OR OBSTRUCTIONS TO VISIBILITY.

NVZ001-003-004-250300-
WESTERN NEVADA

CITY           SKY/WX    TMP DP  RH WIND       PRES   REMARKS
RENO           MOSUNNY   92  32  12 W21G28    30.00R
CARSON CITY    FAIR      88  28  11 W13G20    30.06R
MINDEN         FAIR      86  36  16 W17       30.07R
PYRAMID LAKE     N/A     95 N/A N/A N3          N/A
FALLON         SUNNY     98  13   4 N6        29.94S
LOVELOCK       SUNNY     97  16   5 SE3       29.95S
$$

NVZ002-CAZ072-073-250300-
NORTHERN AND CENTRAL SIERRA

CITY           SKY/WX    TMP DP  RH WIND       PRES   REMARKS
S. LAKE TAHOE  SUNNY     77  35  21 S12G17    30.21R
TRUCKEE        SUNNY     79  34  19 SW13      30.19R
SQUAW VLY 8000 NOT AVBL
MAMMOTH LAKES    N/A     82  23  11 NW23      30.26S
BRIDGEPORT       N/A     80  22  11 SW12      30.22R
$$

NVZ030-031-036-250300-
NORTHERN NEVADA

CITY           SKY/WX    TMP DP  RH WIND       PRES   REMARKS
ELKO           SUNNY     93  12   5 NW8       30.04S
WINNEMUCCA     SUNNY     94  16   6 N5        29.99S
WENDOVER       CLEAR     90  28  11 SW5       30.02S
$$

NVZ035-037-250300-
CENTRAL NEVADA

CITY           SKY/WX    TMP DP  RH WIND       PRES   REMARKS
ELY            PTCLDY    89  21   8 SW10      30.12S
EUREKA           N/A     92  16   6 W13G21    30.07S
$$

NVZ013-014-250300-
SOUTH CENTRAL NEVADA

CITY           SKY/WX    TMP DP  RH WIND       PRES   REMARKS
TONOPAH        SUNNY     96  16   5 VRB5      30.04S
$$

NVZ017-020-022-250300-
SOUTHERN NEVADA

CITY           SKY/WX    TMP DP  RH WIND       PRES   REMARKS
LAS VEGAS      CLEAR    107  33   8 S13G20    29.75S
N. LAS VEGAS   CLEAR    107  39  10 SW15      29.77R
NELLIS AFB     CLEAR    108  38   9 S13       29.75R
HENDERSON      CLEAR    105  45  13 SW14G23   29.84R
MERCURY        CLEAR    102  23   6 S17       29.88S
$$



USA.gov is the U.S. government's official web portal to all federal, state and local government web resources and services.